Location: La Plant
(45.1447°N, 100.6515°W)
Time: 22:30:15
(UTC+00:00)

ISS - Pass Details

Date: 26 November 2020
Orbit: 418 x 419 km, 51.6° (Epoch: 18 January)

Event Time Altitude Azimuth Distance (km) Brightness Sun altitude
Rises 23:54:42 0° 247° (WSW) 2,360 2.5 -8.8°
Reaches altitude 10° 23:56:48 10° 250° (WSW) 1,498 0.8 -9.2°
Maximum altitude 00:00:09 67° 333° (NNW) 457 -3.6 -9.7°
Enters shadow 00:02:54 15° 56° (NE) 1,256 -2.0 -10.2°
